Weather in Norderstedt

Germany     53°42′22″N   9°59′49″E
temp.,
°C
wind,
m/s
gust,
m/s
humid.,
%
clouds,
%
prec.,
mm/h
press.,
hPa
HPBL,
m
22 april, thu
thu2223:00+4wnw612655 0.0 10181042
02:00+4wnw6137219 0.0 10181092
05:00+4wnw6127499 0.0 10181199
08:00+5nw7136959 0.0 10191116
11:00+8nw81257100 0.0 10201689
14:00+8nw7126291 0.2 10211772
17:00+9nw813555 0.1 10221825
20:00+6wnw712755 0.1 10231064
23 april, fri
fri2323:00+4wnw512875 0.0 1024711
02:00+3wnw412905 0.0 1024629
05:00+3wnw412865 0.0 1024567
08:00+5wnw512735 0.0 1025804
11:00+10nw69525 0.0 10251307
14:00+12wnw794821 0.0 10261770
17:00+10nw785112 0.0 10261549
20:00+7wnw5968100 0.0 1027767
24 april, sat
sat2423:00+4wnw4118314 0.0 1027478
02:00+3wnw399517 0.0 1027268
05:00+2wnw3998100 0.0 1026269
08:00+5wnw498178 0.0 1026546
11:00+9nw575378 0.0 10261168
14:00+12nw454237 0.0 10251752
17:00+12nnw344296 0.0 10242005
20:00+7ene475966 0.0 1026510
25 april, sun
sun2523:00+2ene23645 0.0 102741
02:00+1ese11621 0.0 102710
05:000sw11645 0.0 102710
08:00+4wsw245824 0.0 1026238
11:00+7wnw345744 0.0 10261220
14:00+11wnw554665 0.0 10241692
17:00+10wnw5551100 0.0 10231463
20:00+7wnw4771100 0.0 1023448
26 april, mon
mon2623:00+2nw24907 0.0 102278
02:00+1wnw23955 0.0 102250
05:00−1wnw23964 0.0 102061
08:00+3nw24765 0.0 1020239
11:00+8nnw2250100 0.0 10191224
14:00+11nnw2142100 0.0 10171551
17:00+11nne214186 0.0 10161595
20:00+8ene376681 0.0 1015191